SKU011 KCYS-KEAU

Flight info

Callsign SKU011
Flight time 1h 50m
Altitude 17000
Route CYS AIA V100 ANW/N0450F370 FSD/N0388F170 V148 RWF/N0450F370 FOW EAU
Aircraft A320/M-SDE3FGHIRWY/LB1

Departure

Time 2026-05-03 22:46
Airport Cheyenne Regional Jerry Olson Field (KCYS)

Arrival

Time 2026-05-04 00:37
Airport Chippewa Valley Regional Airport (KEAU)
Time Latitude Longitude Altitude Speed Heading
2026-05-03 22:29 41.15945 -104.82017 6154 ft 0 kts 315°
2026-05-03 22:34 41.15950 -104.82022 6154 ft 0 kts 316°
2026-05-03 22:34 41.15954 -104.82036 6154 ft 6 kts 289°
2026-05-03 22:34 41.15932 -104.82062 6155 ft 4 kts 171°
2026-05-03 22:34 41.15896 -104.82051 6153 ft 9 kts 174°
2026-05-03 22:35 41.15806 -104.82089 6152 ft 14 kts 189°
2026-05-03 22:35 41.15703 -104.82097 6151 ft 14 kts 181°
2026-05-03 22:35 41.15629 -104.82104 6151 ft 10 kts 190°
2026-05-03 22:35 41.15561 -104.82117 6153 ft 9 kts 178°
2026-05-03 22:36 41.15529 -104.82064 6153 ft 8 kts 103°
2026-05-03 22:36 41.15520 -104.81961 6152 ft 12 kts 95°
2026-05-03 22:36 41.15512 -104.81851 6155 ft 11 kts 95°
2026-05-03 22:36 41.15507 -104.81762 6154 ft 8 kts 95°
2026-05-03 22:37 41.15505 -104.81727 6155 ft 6 kts 94°
2026-05-03 22:37 41.15502 -104.81678 6155 ft 5 kts 94°
2026-05-03 22:37 41.15497 -104.81624 6157 ft 11 kts 97°
2026-05-03 22:37 41.15485 -104.81429 6151 ft 21 kts 93°
2026-05-03 22:38 41.15472 -104.81267 6152 ft 15 kts 97°
2026-05-03 22:38 41.15462 -104.81116 6148 ft 18 kts 95°
2026-05-03 22:38 41.15446 -104.80939 6144 ft 21 kts 96°
2026-05-03 22:38 41.15432 -104.80741 6142 ft 22 kts 97°
2026-05-03 22:39 41.15417 -104.80528 6138 ft 24 kts 96°
2026-05-03 22:39 41.15402 -104.80329 6135 ft 22 kts 94°
2026-05-03 22:39 41.15389 -104.80113 6130 ft 24 kts 96°
2026-05-03 22:39 41.15373 -104.79899 6126 ft 24 kts 95°
2026-05-03 22:40 41.15361 -104.79692 6120 ft 20 kts 96°
2026-05-03 22:40 41.15347 -104.79501 6117 ft 21 kts 95°
2026-05-03 22:40 41.15333 -104.79291 6111 ft 25 kts 95°
2026-05-03 22:40 41.15315 -104.79060 6110 ft 16 kts 94°
2026-05-03 22:41 41.15307 -104.78940 6108 ft 14 kts 94°
2026-05-03 22:41 41.15301 -104.78826 6105 ft 7 kts 83°
2026-05-03 22:41 41.15335 -104.78792 6094 ft 5 kts 17°
2026-05-03 22:41 41.15348 -104.78789 6098 ft 0 kts
2026-05-03 22:43 41.15366 -104.78786 6093 ft 11 kts
2026-05-03 22:44 41.15439 -104.78801 6098 ft 8 kts 280°
2026-05-03 22:44 41.15447 -104.78859 6101 ft 5 kts 276°
2026-05-03 22:44 41.15448 -104.78866 6106 ft 0 kts 275°
2026-05-03 22:45 41.15454 -104.78957 6102 ft 40 kts 274°
2026-05-03 22:45 41.15505 -104.79669 6125 ft 111 kts 275°
2026-05-03 22:45 41.15592 -104.80951 6147 ft 166 kts 275°
2026-05-03 22:46 41.15701 -104.82668 6317 ft 203 kts 274°
2026-05-03 22:46 41.15806 -104.84666 6698 ft 231 kts 274°
2026-05-03 22:46 41.15942 -104.86789 7460 ft 239 kts 275°
2026-05-03 22:46 41.16214 -104.89093 7745 ft 263 kts 291°
2026-05-03 22:47 41.17330 -104.91050 8123 ft 281 kts 326°
2026-05-03 22:47 41.19201 -104.91883 8781 ft 289 kts 359°
2026-05-03 22:47 41.21140 -104.91242 9499 ft 295 kts 31°
2026-05-03 22:47 41.22576 -104.89288 10221 ft 300 kts 62°
2026-05-03 22:48 41.23127 -104.86570 10488 ft 321 kts 91°
2026-05-03 22:48 41.22810 -104.83517 10663 ft 344 kts 101°
2026-05-03 22:48 41.22360 -104.80301 10812 ft 367 kts 101°
2026-05-03 22:48 41.21962 -104.76917 11231 ft 377 kts 91°
2026-05-03 22:49 41.22307 -104.73469 11833 ft 382 kts 73°
2026-05-03 22:49 41.23359 -104.70181 12490 ft 386 kts 61°
2026-05-03 22:49 41.24793 -104.67135 13141 ft 389 kts 55°
2026-05-03 22:49 41.26366 -104.64217 13761 ft 392 kts 53°
2026-05-03 22:50 41.27967 -104.61262 14371 ft 396 kts 54°
2026-05-03 22:50 41.29527 -104.58215 14957 ft 399 kts 56°
2026-05-03 22:50 41.31005 -104.55113 15516 ft 402 kts 58°
2026-05-03 22:50 41.32456 -104.51873 16075 ft 406 kts 59°
2026-05-03 22:51 41.33869 -104.48599 16608 ft 409 kts 60°
2026-05-03 22:51 41.35258 -104.45336 16931 ft 411 kts 60°
2026-05-03 22:51 41.36676 -104.42012 17013 ft 419 kts 60°
2026-05-03 22:51 41.38155 -104.38577 17018 ft 434 kts 60°
2026-05-03 22:52 41.39675 -104.35079 17015 ft 441 kts 59°
2026-05-03 22:52 41.41227 -104.31528 17018 ft 442 kts 59°
2026-05-03 22:52 41.42767 -104.28012 17017 ft 442 kts 59°
2026-05-03 22:52 41.44328 -104.24446 17015 ft 442 kts 59°
2026-05-03 22:53 41.45872 -104.20915 17015 ft 442 kts 59°
2026-05-03 22:53 41.47427 -104.17340 17015 ft 442 kts 60°
2026-05-03 22:53 41.48955 -104.13814 17015 ft 442 kts 60°
2026-05-03 22:53 41.50482 -104.10284 17015 ft 442 kts 60°
2026-05-03 22:54 41.52028 -104.06709 17016 ft 442 kts 60°
2026-05-03 22:54 41.53554 -104.03183 17016 ft 442 kts 60°
2026-05-03 22:54 41.55100 -103.99607 17017 ft 442 kts 60°
2026-05-03 22:54 41.56625 -103.96076 17019 ft 442 kts 60°
2026-05-03 22:55 41.58168 -103.92504 17019 ft 441 kts 60°
2026-05-03 22:55 41.59688 -103.88983 17021 ft 441 kts 60°
2026-05-03 22:55 41.61228 -103.85412 17021 ft 441 kts 60°
2026-05-03 22:55 41.62766 -103.81838 17020 ft 441 kts 60°
2026-05-03 22:56 41.64287 -103.78299 17020 ft 441 kts 60°
2026-05-03 22:56 41.65805 -103.74762 17023 ft 441 kts 60°
2026-05-03 22:56 41.67336 -103.71182 17019 ft 441 kts 60°
2026-05-03 22:56 41.68847 -103.67641 17018 ft 441 kts 60°
2026-05-03 22:57 41.70379 -103.64047 17017 ft 441 kts 60°
2026-05-03 22:57 41.71886 -103.60511 17016 ft 441 kts 60°
2026-05-03 22:57 41.73415 -103.56926 17017 ft 440 kts 60°
2026-05-03 22:57 41.74924 -103.53382 17019 ft 440 kts 60°
2026-05-03 22:58 41.76446 -103.49798 17020 ft 440 kts 60°
2026-05-03 22:58 41.77950 -103.46248 17021 ft 440 kts 60°
2026-05-03 22:58 41.79453 -103.42693 17023 ft 440 kts 60°
2026-05-03 22:58 41.80965 -103.39118 17024 ft 440 kts 60°
2026-05-03 22:59 41.82484 -103.35532 17021 ft 440 kts 60°
2026-05-03 22:59 41.83991 -103.31969 17021 ft 440 kts 60°
2026-05-03 22:59 41.85494 -103.28416 17022 ft 440 kts 60°
2026-05-03 22:59 41.87013 -103.24818 17019 ft 440 kts 60°
2026-05-03 23:00 41.88509 -103.21270 17019 ft 440 kts 60°
2026-05-03 23:00 41.90015 -103.17693 17015 ft 440 kts 60°
2026-05-03 23:00 41.91514 -103.14125 17014 ft 440 kts 60°
2026-05-03 23:00 41.93021 -103.10530 17014 ft 440 kts 60°
2026-05-03 23:01 41.94513 -103.06963 17017 ft 440 kts 60°
2026-05-03 23:01 41.96016 -103.03361 17017 ft 441 kts 60°
2026-05-03 23:01 41.97017 -103.00965 17020 ft 441 kts 60°
2026-05-03 23:01 41.99015 -102.96185 17019 ft 440 kts 60°
2026-05-03 23:02 42.00510 -102.92608 17019 ft 440 kts 60°
2026-05-03 23:02 42.02017 -102.88992 17020 ft 440 kts 60°
2026-05-03 23:02 42.03017 -102.86581 17018 ft 440 kts 60°
2026-05-03 23:02 42.04494 -102.83011 17018 ft 440 kts 62°
2026-05-03 23:03 42.05732 -102.79277 17016 ft 440 kts 71°
2026-05-03 23:03 42.06581 -102.75276 17017 ft 440 kts 75°
2026-05-03 23:03 42.07603 -102.70015 17017 ft 440 kts 75°
2026-05-03 23:03 42.08128 -102.67309 17017 ft 440 kts 75°
2026-05-03 23:04 42.08895 -102.63366 17020 ft 440 kts 75°
2026-05-03 23:04 42.09676 -102.59359 17019 ft 440 kts 75°
2026-05-03 23:04 42.10455 -102.55372 17020 ft 440 kts 75°
2026-05-03 23:04 42.11228 -102.51415 17020 ft 440 kts 75°
2026-05-03 23:05 42.12006 -102.47407 17022 ft 440 kts 75°
2026-05-03 23:05 42.12771 -102.43431 17022 ft 440 kts 75°
2026-05-03 23:05 42.13541 -102.39409 17022 ft 440 kts 75°
2026-05-03 23:05 42.14302 -102.35421 17022 ft 440 kts 75°
2026-05-03 23:06 42.15061 -102.31450 17023 ft 441 kts 75°
2026-05-03 23:06 42.15822 -102.27460 17026 ft 441 kts 75°
2026-05-03 23:06 42.16591 -102.23433 17024 ft 441 kts 75°
2026-05-03 23:06 42.17350 -102.19459 17025 ft 441 kts 75°
2026-05-03 23:07 42.18117 -102.15441 17025 ft 441 kts 75°
2026-05-03 23:07 42.18873 -102.11465 17028 ft 441 kts 76°
2026-05-03 23:07 42.19635 -102.07444 17026 ft 441 kts 76°
2026-05-03 23:07 42.20396 -102.03421 17026 ft 441 kts 76°
2026-05-03 23:08 42.21148 -101.99434 17028 ft 441 kts 76°
2026-05-03 23:08 42.21899 -101.95446 17027 ft 441 kts 76°
2026-05-03 23:08 42.22656 -101.91403 17026 ft 441 kts 76°
2026-05-03 23:08 42.23400 -101.87403 17026 ft 440 kts 76°
2026-05-03 23:09 42.24142 -101.83413 17026 ft 440 kts 76°
2026-05-03 23:09 42.24893 -101.79377 17028 ft 440 kts 76°
2026-05-03 23:09 42.25634 -101.75405 17025 ft 440 kts 76°
2026-05-03 23:09 42.26379 -101.71404 17026 ft 440 kts 76°
2026-05-03 23:10 42.27128 -101.67365 17026 ft 440 kts 76°
2026-05-03 23:10 42.27874 -101.63331 17030 ft 440 kts 76°
2026-05-03 23:10 42.28610 -101.59341 17027 ft 440 kts 76°
2026-05-03 23:10 42.29348 -101.55333 17027 ft 440 kts 76°
2026-05-03 23:11 42.30091 -101.51300 17028 ft 440 kts 76°
2026-05-03 23:11 42.30826 -101.47307 17026 ft 440 kts 76°
2026-05-03 23:11 42.31554 -101.43321 17025 ft 440 kts 76°
2026-05-03 23:11 42.32286 -101.39294 17025 ft 440 kts 76°
2026-05-03 23:12 42.33019 -101.35254 17024 ft 440 kts 76°
2026-05-03 23:12 42.33743 -101.31277 17023 ft 440 kts 76°
2026-05-03 23:12 42.34480 -101.27229 17025 ft 440 kts 76°
2026-05-03 23:12 42.35200 -101.23260 17023 ft 439 kts 76°
2026-05-03 23:13 42.35931 -101.19230 17023 ft 439 kts 76°
2026-05-03 23:13 42.36651 -101.15243 17022 ft 439 kts 76°
2026-05-03 23:13 42.37378 -101.11184 17022 ft 439 kts 76°
2026-05-03 23:13 42.38087 -101.07195 17022 ft 439 kts 76°
2026-05-03 23:14 42.38806 -101.03153 17021 ft 439 kts 76°
2026-05-03 23:14 42.39515 -100.99173 17021 ft 439 kts 76°
2026-05-03 23:14 42.40230 -100.95168 17020 ft 439 kts 76°
2026-05-03 23:14 42.40950 -100.91137 17020 ft 439 kts 76°
2026-05-03 23:15 42.41660 -100.87140 17019 ft 439 kts 76°
2026-05-03 23:15 42.42375 -100.83089 17019 ft 439 kts 76°
2026-05-03 23:15 42.43079 -100.79100 17018 ft 439 kts 76°
2026-05-03 23:15 42.43783 -100.75111 17018 ft 439 kts 76°
2026-05-03 23:16 42.44498 -100.71060 17016 ft 438 kts 76°
2026-05-03 23:16 42.45201 -100.67061 17016 ft 438 kts 76°
2026-05-03 23:16 42.45906 -100.63035 17015 ft 438 kts 76°
2026-05-03 23:16 42.46608 -100.59027 17015 ft 438 kts 76°
2026-05-03 23:17 42.47304 -100.55036 17014 ft 438 kts 77°
2026-05-03 23:17 42.48002 -100.51017 17015 ft 438 kts 77°
2026-05-03 23:17 42.48704 -100.46971 17014 ft 438 kts 77°
2026-05-03 23:17 42.49393 -100.42978 17013 ft 438 kts 77°
2026-05-03 23:18 42.50092 -100.38932 17012 ft 438 kts 77°
2026-05-03 23:18 42.50782 -100.34940 17012 ft 438 kts 77°
2026-05-03 23:18 42.51481 -100.30885 17012 ft 438 kts 77°
2026-05-03 23:18 42.52168 -100.26883 17012 ft 438 kts 77°
2026-05-03 23:19 42.52855 -100.22880 17011 ft 438 kts 77°
2026-05-03 23:19 42.53546 -100.18832 17011 ft 438 kts 77°
2026-05-03 23:19 42.54226 -100.14836 17011 ft 438 kts 77°
2026-05-03 23:19 42.54914 -100.10796 17011 ft 438 kts 77°
2026-05-03 23:20 42.55592 -100.06799 17011 ft 438 kts 77°
2026-05-03 23:20 42.56276 -100.02758 17012 ft 438 kts 77°
2026-05-03 23:20 42.57085 -99.98800 17010 ft 438 kts 70°
2026-05-03 23:20 42.58311 -99.95036 17011 ft 437 kts 64°
2026-05-03 23:21 42.59655 -99.91292 17011 ft 437 kts 64°
2026-05-03 23:21 42.60975 -99.87591 17011 ft 437 kts 64°
2026-05-03 23:21 42.62289 -99.83892 17011 ft 437 kts 64°
2026-05-03 23:21 42.63624 -99.80126 17014 ft 437 kts 64°
2026-05-03 23:22 42.66260 -99.72671 17016 ft 437 kts 64°
2026-05-03 23:22 42.67567 -99.68965 17018 ft 437 kts 64°
2026-05-03 23:22 42.68871 -99.65268 17017 ft 437 kts 64°
2026-05-03 23:23 42.70195 -99.61506 17017 ft 437 kts 64°
2026-05-03 23:23 42.71498 -99.57797 17018 ft 437 kts 64°
2026-05-03 23:23 42.72806 -99.54076 17021 ft 437 kts 64°
2026-05-03 23:23 42.74129 -99.50303 17020 ft 437 kts 64°
2026-05-03 23:24 42.75432 -99.46583 17019 ft 437 kts 64°
2026-05-03 23:24 42.76730 -99.42875 17020 ft 437 kts 64°
2026-05-03 23:24 42.78046 -99.39113 17023 ft 437 kts 64°
2026-05-03 23:24 42.79346 -99.35391 17023 ft 437 kts 64°
2026-05-03 23:25 42.80640 -99.31681 17021 ft 437 kts 64°
2026-05-03 23:25 42.81954 -99.27909 17018 ft 437 kts 64°
2026-05-03 23:25 42.83247 -99.24193 17020 ft 437 kts 64°
2026-05-03 23:25 42.84550 -99.20450 17018 ft 437 kts 64°
2026-05-03 23:26 42.85842 -99.16728 17019 ft 437 kts 64°
2026-05-03 23:26 42.87143 -99.12966 17019 ft 437 kts 64°
2026-05-03 23:26 42.88436 -99.09215 17020 ft 437 kts 65°
2026-05-03 23:26 42.89711 -99.05497 17020 ft 437 kts 65°
2026-05-03 23:27 42.91015 -99.01703 17114 ft 446 kts 65°
2026-05-03 23:27 42.92349 -98.97833 17510 ft 449 kts 65°
2026-05-03 23:27 42.93680 -98.93973 17933 ft 452 kts 65°
2026-05-03 23:27 42.95012 -98.90105 18333 ft 455 kts 65°
2026-05-03 23:28 42.96363 -98.86169 18726 ft 457 kts 65°
2026-05-03 23:28 42.97708 -98.82243 19092 ft 460 kts 65°
2026-05-03 23:28 42.99072 -98.78252 19658 ft 456 kts 65°
2026-05-03 23:28 43.00373 -98.74441 20806 ft 439 kts 65°
2026-05-03 23:29 43.01661 -98.70660 21633 ft 434 kts 65°
2026-05-03 23:29 43.02931 -98.66936 22263 ft 431 kts 65°
2026-05-03 23:29 43.04193 -98.63232 22841 ft 430 kts 65°
2026-05-03 23:29 43.05457 -98.59509 23405 ft 429 kts 65°
2026-05-03 23:30 43.06702 -98.55835 23958 ft 428 kts 65°
2026-05-03 23:30 43.07954 -98.52128 24514 ft 427 kts 65°
2026-05-03 23:30 43.09192 -98.48456 25034 ft 426 kts 65°
2026-05-03 23:30 43.10441 -98.44753 25556 ft 426 kts 65°
2026-05-03 23:31 43.11682 -98.41076 26066 ft 425 kts 65°
2026-05-03 23:31 43.12905 -98.37438 26573 ft 423 kts 65°
2026-05-03 23:31 43.14129 -98.33791 27075 ft 422 kts 65°
2026-05-03 23:31 43.15368 -98.30109 27574 ft 422 kts 65°
2026-05-03 23:32 43.16582 -98.26492 28051 ft 421 kts 65°
2026-05-03 23:32 43.17812 -98.22825 28521 ft 420 kts 65°
2026-05-03 23:32 43.19023 -98.19201 28994 ft 419 kts 65°
2026-05-03 23:32 43.20227 -98.15595 29438 ft 419 kts 65°
2026-05-03 23:33 43.21446 -98.11946 29881 ft 418 kts 65°
2026-05-03 23:33 43.22645 -98.08348 30323 ft 417 kts 65°
2026-05-03 23:33 43.23842 -98.04738 30760 ft 416 kts 65°
2026-05-03 23:33 43.25045 -98.01111 30981 ft 417 kts 65°
2026-05-03 23:34 43.27445 -97.93878 31009 ft 415 kts 65°
2026-05-03 23:34 43.29828 -97.86684 31009 ft 415 kts 65°
2026-05-03 23:35 43.32213 -97.79456 31009 ft 415 kts 65°
2026-05-03 23:35 43.34583 -97.72224 31009 ft 415 kts 65°
2026-05-03 23:36 43.36949 -97.64995 31008 ft 415 kts 65°
2026-05-03 23:36 43.39299 -97.57804 31006 ft 414 kts 65°
2026-05-03 23:37 43.41673 -97.50555 31002 ft 414 kts 65°
2026-05-03 23:37 43.44035 -97.43308 30998 ft 414 kts 66°
2026-05-03 23:38 43.46384 -97.36073 30997 ft 414 kts 66°
2026-05-03 23:38 43.48714 -97.28871 30995 ft 414 kts 66°
2026-05-03 23:39 43.51074 -97.21577 31518 ft 415 kts 66°
2026-05-03 23:39 43.52232 -97.17976 31949 ft 414 kts 66°
2026-05-03 23:39 43.53403 -97.14320 32375 ft 413 kts 66°
2026-05-03 23:40 43.54560 -97.10708 32770 ft 413 kts 66°
2026-05-03 23:40 43.55707 -97.07118 33147 ft 412 kts 66°
2026-05-03 23:40 43.56863 -97.03504 33509 ft 411 kts 66°
2026-05-03 23:40 43.58024 -96.99877 33866 ft 411 kts 66°
2026-05-03 23:41 43.59179 -96.96269 34224 ft 410 kts 66°
2026-05-03 23:41 43.60320 -96.92703 34541 ft 409 kts 66°
2026-05-03 23:41 43.61472 -96.89094 34866 ft 409 kts 66°
2026-05-03 23:41 43.62610 -96.85511 34998 ft 409 kts 66°
2026-05-03 23:42 43.64964 -96.78376 35011 ft 408 kts 60°
2026-05-03 23:42 43.68131 -96.71897 35013 ft 408 kts 54°
2026-05-03 23:43 43.71404 -96.65453 35012 ft 408 kts 55°
2026-05-03 23:43 43.74646 -96.59022 35013 ft 408 kts 55°
2026-05-03 23:44 43.77901 -96.52574 35017 ft 418 kts 55°
2026-05-03 23:44 43.81316 -96.45821 35008 ft 434 kts 55°
2026-05-03 23:45 43.84221 -96.40057 35012 ft 446 kts 55°
2026-05-03 23:45 43.88381 -96.31740 35006 ft 454 kts 55°
2026-05-03 23:46 43.91379 -96.25725 35013 ft 454 kts 55°
2026-05-03 23:46 43.94977 -96.18524 35004 ft 455 kts 55°
2026-05-03 23:47 43.98589 -96.11295 35005 ft 455 kts 55°
2026-05-03 23:47 44.02177 -96.04068 35004 ft 455 kts 55°
2026-05-03 23:48 44.05760 -95.96831 35011 ft 455 kts 55°
2026-05-03 23:48 44.09343 -95.89595 34889 ft 454 kts 55°
2026-05-03 23:49 44.11138 -95.85954 34200 ft 453 kts 55°
2026-05-03 23:49 44.12919 -95.82337 33448 ft 455 kts 55°
2026-05-03 23:49 44.14694 -95.78732 33115 ft 455 kts 55°
2026-05-03 23:49 44.16501 -95.75062 32975 ft 456 kts 55°
2026-05-03 23:50 44.20091 -95.67750 33009 ft 458 kts 56°
2026-05-03 23:50 44.23677 -95.60423 33008 ft 458 kts 56°
2026-05-03 23:51 44.27248 -95.53093 33008 ft 458 kts 56°
2026-05-03 23:51 44.30806 -95.45760 33008 ft 457 kts 56°
2026-05-03 23:52 44.34396 -95.38373 33007 ft 457 kts 56°
2026-05-03 23:52 44.37943 -95.31056 33004 ft 457 kts 56°
2026-05-03 23:53 44.41506 -95.23688 33002 ft 457 kts 56°
2026-05-03 23:53 44.44519 -95.15902 32753 ft 455 kts 70°
2026-05-03 23:54 44.45329 -95.11661 31962 ft 455 kts 81°
2026-05-03 23:54 44.45583 -95.07185 31166 ft 456 kts 92°
2026-05-03 23:54 44.45275 -95.02872 30993 ft 441 kts 100°
2026-05-03 23:54 44.44689 -94.98719 30592 ft 434 kts 101°
2026-05-03 23:55 44.44107 -94.94562 29941 ft 433 kts 101°
2026-05-03 23:55 44.43534 -94.90440 29292 ft 432 kts 101°
2026-05-03 23:55 44.42961 -94.86347 28647 ft 431 kts 101°
2026-05-03 23:55 44.42374 -94.82213 27985 ft 430 kts 101°
2026-05-03 23:56 44.41786 -94.78131 27342 ft 428 kts 101°
2026-05-03 23:56 44.41198 -94.74085 26697 ft 427 kts 101°
2026-05-03 23:56 44.40600 -94.69991 26035 ft 425 kts 102°
2026-05-03 23:56 44.40012 -94.65961 25388 ft 423 kts 101°
2026-05-03 23:57 44.39428 -94.61967 24741 ft 421 kts 102°
2026-05-03 23:57 44.38837 -94.57933 24089 ft 419 kts 102°
2026-05-03 23:57 44.38255 -94.53975 23434 ft 417 kts 102°
2026-05-03 23:57 44.37672 -94.50009 22782 ft 415 kts 102°
2026-05-03 23:58 44.37094 -94.46059 22134 ft 413 kts 102°
2026-05-03 23:58 44.36519 -94.42150 21474 ft 412 kts 102°
2026-05-03 23:58 44.35946 -94.38267 20833 ft 410 kts 102°
2026-05-03 23:58 44.35363 -94.34340 20178 ft 409 kts 102°
2026-05-03 23:59 44.34780 -94.30440 19520 ft 407 kts 102°
2026-05-03 23:59 44.34203 -94.26593 18873 ft 406 kts 102°
2026-05-03 23:59 44.33627 -94.22769 18224 ft 405 kts 102°
2026-05-03 23:59 44.33046 -94.18919 17571 ft 403 kts 102°
2026-05-04 00:00 44.32468 -94.15090 17121 ft 397 kts 102°
2026-05-04 00:00 44.31916 -94.11424 17095 ft 379 kts 102°
2026-05-04 00:00 44.31387 -94.07904 17109 ft 362 kts 102°
2026-05-04 00:00 44.30879 -94.04517 17109 ft 346 kts 102°
2026-05-04 00:01 44.30392 -94.01295 17110 ft 340 kts 102°
2026-05-04 00:01 44.29899 -93.98058 17110 ft 338 kts 102°
2026-05-04 00:01 44.29413 -93.94874 17110 ft 337 kts 102°
2026-05-04 00:01 44.28922 -93.91656 17111 ft 337 kts 102°
2026-05-04 00:02 44.28435 -93.88459 17110 ft 337 kts 102°
2026-05-04 00:02 44.27949 -93.85277 17111 ft 338 kts 102°
2026-05-04 00:02 44.27457 -93.82053 17112 ft 338 kts 102°
2026-05-04 00:02 44.26967 -93.78857 17111 ft 338 kts 102°
2026-05-04 00:03 44.26472 -93.75641 17110 ft 338 kts 102°
2026-05-04 00:03 44.25979 -93.72454 17111 ft 338 kts 102°
2026-05-04 00:03 44.25487 -93.69274 17111 ft 338 kts 102°
2026-05-04 00:03 44.24985 -93.66038 17111 ft 338 kts 102°
2026-05-04 00:04 44.24491 -93.62860 17112 ft 338 kts 102°
2026-05-04 00:04 44.23994 -93.59675 17110 ft 338 kts 102°
2026-05-04 00:04 44.23490 -93.56449 17110 ft 338 kts 102°
2026-05-04 00:04 44.22992 -93.53279 17110 ft 338 kts 102°
2026-05-04 00:05 44.22486 -93.50050 17110 ft 338 kts 102°
2026-05-04 00:05 44.21990 -93.46875 17113 ft 338 kts 102°
2026-05-04 00:05 44.21637 -93.43624 17110 ft 338 kts 95°
2026-05-04 00:05 44.21575 -93.40378 17111 ft 338 kts 88°
2026-05-04 00:06 44.21801 -93.37102 17111 ft 338 kts 81°
2026-05-04 00:06 44.22301 -93.33927 17111 ft 337 kts 73°
2026-05-04 00:06 44.23077 -93.30825 17112 ft 337 kts 66°
2026-05-04 00:06 44.24117 -93.27893 17111 ft 337 kts 60°
2026-05-04 00:07 44.25258 -93.25069 17110 ft 337 kts 60°
2026-05-04 00:07 44.26411 -93.22194 17085 ft 336 kts 60°
2026-05-04 00:07 44.27534 -93.19386 16820 ft 331 kts 60°
2026-05-04 00:07 44.28644 -93.16603 16692 ft 321 kts 60°
2026-05-04 00:08 44.29711 -93.13918 16558 ft 313 kts 61°
2026-05-04 00:08 44.30763 -93.11267 16309 ft 309 kts 61°
2026-05-04 00:08 44.31799 -93.08660 16015 ft 307 kts 60°
2026-05-04 00:08 44.32825 -93.06079 15716 ft 305 kts 60°
2026-05-04 00:09 44.33848 -93.03503 15413 ft 304 kts 61°
2026-05-04 00:09 44.34877 -93.00906 15105 ft 302 kts 61°
2026-05-04 00:09 44.35888 -92.98352 14804 ft 301 kts 61°
2026-05-04 00:09 44.36891 -92.95811 14505 ft 300 kts 61°
2026-05-04 00:10 44.37902 -92.93249 14203 ft 298 kts 61°
2026-05-04 00:10 44.38896 -92.90734 13908 ft 297 kts 61°
2026-05-04 00:10 44.39902 -92.88190 13604 ft 296 kts 61°
2026-05-04 00:10 44.40885 -92.85701 13301 ft 294 kts 61°
2026-05-04 00:11 44.41876 -92.83182 12997 ft 293 kts 61°
2026-05-04 00:11 44.42850 -92.80700 12695 ft 292 kts 61°
2026-05-04 00:11 44.43831 -92.78203 12386 ft 290 kts 61°
2026-05-04 00:11 44.44797 -92.75744 12081 ft 289 kts 61°
2026-05-04 00:12 44.45766 -92.73282 11770 ft 287 kts 61°
2026-05-04 00:12 44.46722 -92.70846 11457 ft 286 kts 61°
2026-05-04 00:12 44.47687 -92.68390 11137 ft 285 kts 61°
2026-05-04 00:12 44.48636 -92.65968 10818 ft 283 kts 61°
2026-05-04 00:13 44.49578 -92.63554 10497 ft 282 kts 61°
2026-05-04 00:13 44.50512 -92.61166 10364 ft 281 kts 61°
2026-05-04 00:13 44.51446 -92.58780 10372 ft 282 kts 61°
2026-05-04 00:13 44.52393 -92.56352 10247 ft 280 kts 61°
2026-05-04 00:14 44.53323 -92.53971 9907 ft 279 kts 61°
2026-05-04 00:14 44.54244 -92.51602 9570 ft 278 kts 61°
2026-05-04 00:14 44.55174 -92.49211 9226 ft 277 kts 61°
2026-05-04 00:14 44.56088 -92.46859 8900 ft 275 kts 61°
2026-05-04 00:15 44.57009 -92.44488 8547 ft 274 kts 61°
2026-05-04 00:15 44.57912 -92.42167 8196 ft 272 kts 61°
2026-05-04 00:15 44.58816 -92.39839 7840 ft 271 kts 61°
2026-05-04 00:15 44.59717 -92.37510 7487 ft 270 kts 61°
2026-05-04 00:16 44.60603 -92.35218 7135 ft 268 kts 61°
2026-05-04 00:16 44.61487 -92.32933 6779 ft 267 kts 61°
2026-05-04 00:16 44.62366 -92.30655 6419 ft 265 kts 61°
2026-05-04 00:16 44.63252 -92.28364 6049 ft 264 kts 61°
2026-05-04 00:17 44.64125 -92.26098 5668 ft 263 kts 61°
2026-05-04 00:17 44.64990 -92.23853 5333 ft 261 kts 61°
2026-05-04 00:17 44.65846 -92.21636 5270 ft 260 kts 61°
2026-05-04 00:17 44.66716 -92.19377 5276 ft 262 kts 61°
2026-05-04 00:18 44.67575 -92.17149 5278 ft 262 kts 61°
2026-05-04 00:18 44.68451 -92.14885 5273 ft 262 kts 61°
2026-05-04 00:18 44.69321 -92.12623 5277 ft 262 kts 61°
2026-05-04 00:18 44.70183 -92.10374 5276 ft 262 kts 61°
2026-05-04 00:19 44.71045 -92.08124 5278 ft 262 kts 61°
2026-05-04 00:19 44.71905 -92.05881 5272 ft 262 kts 61°
2026-05-04 00:19 44.72775 -92.03607 5276 ft 262 kts 61°
2026-05-04 00:19 44.73631 -92.01369 5273 ft 262 kts 62°
2026-05-04 00:20 44.74495 -91.99108 5274 ft 262 kts 62°
2026-05-04 00:20 44.75351 -91.96863 5274 ft 262 kts 62°
2026-05-04 00:20 44.76217 -91.94592 5278 ft 262 kts 61°
2026-05-04 00:20 44.77081 -91.92329 5275 ft 262 kts 62°
2026-05-04 00:21 44.77930 -91.90098 5276 ft 262 kts 62°
2026-05-04 00:21 44.78796 -91.87823 5276 ft 262 kts 62°
2026-05-04 00:21 44.79652 -91.85573 5273 ft 262 kts 62°
2026-05-04 00:21 44.80514 -91.83305 5273 ft 262 kts 62°
2026-05-04 00:22 44.81369 -91.81061 5277 ft 262 kts 62°
2026-05-04 00:22 44.82230 -91.78801 5274 ft 262 kts 62°
2026-05-04 00:22 44.83086 -91.76546 5276 ft 262 kts 62°
2026-05-04 00:22 44.83946 -91.74273 5277 ft 262 kts 62°
2026-05-04 00:23 44.84795 -91.72024 5277 ft 262 kts 62°
2026-05-04 00:23 44.85661 -91.69730 5276 ft 262 kts 62°
2026-05-04 00:23 44.86509 -91.67486 5275 ft 262 kts 62°
2026-05-04 00:23 44.87361 -91.65238 5263 ft 261 kts 62°
2026-05-04 00:24 44.88209 -91.62990 5067 ft 254 kts 62°
2026-05-04 00:24 44.89023 -91.60823 4938 ft 243 kts 62°
2026-05-04 00:24 44.89791 -91.58780 4822 ft 233 kts 62°
2026-05-04 00:24 44.90535 -91.56807 4690 ft 225 kts 62°
2026-05-04 00:25 44.91264 -91.54875 4564 ft 218 kts 62°
2026-05-04 00:25 44.91962 -91.53018 4442 ft 211 kts 62°
2026-05-04 00:25 44.92632 -91.51228 4338 ft 204 kts 62°
2026-05-04 00:25 44.93292 -91.49473 4261 ft 197 kts 62°
2026-05-04 00:26 44.93926 -91.47788 4266 ft 195 kts 62°
2026-05-04 00:26 44.94558 -91.46107 4284 ft 195 kts 60°
2026-05-04 00:26 44.95416 -91.44618 4282 ft 195 kts 43°
2026-05-04 00:26 44.96422 -91.43359 4216 ft 193 kts 40°
2026-05-04 00:27 44.97443 -91.42144 3994 ft 193 kts 39°
2026-05-04 00:27 44.98487 -91.40913 3804 ft 193 kts 39°
2026-05-04 00:27 44.99514 -91.39704 3639 ft 192 kts 39°
2026-05-04 00:27 45.00540 -91.38496 3751 ft 193 kts 39°
2026-05-04 00:28 45.01565 -91.37289 3750 ft 194 kts 39°
2026-05-04 00:28 45.02604 -91.36067 3747 ft 194 kts 39°
2026-05-04 00:28 45.03640 -91.34848 3749 ft 194 kts 39°
2026-05-04 00:28 45.04662 -91.33646 3753 ft 194 kts 39°
2026-05-04 00:29 45.05698 -91.32426 3753 ft 195 kts 39°
2026-05-04 00:29 45.06736 -91.31207 3771 ft 194 kts 39°
2026-05-04 00:29 45.07764 -91.29998 3771 ft 194 kts 39°
2026-05-04 00:29 45.08660 -91.28619 3794 ft 193 kts 61°
2026-05-04 00:30 45.08966 -91.26788 3784 ft 193 kts 94°
2026-05-04 00:30 45.08756 -91.25561 3751 ft 192 kts 116°
2026-05-04 00:30 45.07963 -91.24058 3767 ft 191 kts 140°
2026-05-04 00:30 45.06372 -91.23000 3779 ft 192 kts 172°
2026-05-04 00:31 45.05484 -91.22974 3777 ft 190 kts 188°
2026-05-04 00:31 45.04251 -91.23574 3769 ft 189 kts 213°
2026-05-04 00:31 45.02947 -91.25231 3779 ft 190 kts 226°
2026-05-04 00:31 45.02320 -91.26127 3764 ft 189 kts 226°
2026-05-04 00:32 45.01395 -91.27444 3759 ft 189 kts 226°
2026-05-04 00:32 45.00459 -91.28772 3766 ft 189 kts 225°
2026-05-04 00:32 44.99525 -91.30095 3771 ft 189 kts 225°
2026-05-04 00:32 44.98596 -91.31408 3766 ft 189 kts 225°
2026-05-04 00:33 44.97670 -91.32719 3662 ft 190 kts 225°
2026-05-04 00:33 44.95844 -91.35300 3214 ft 180 kts 225°
2026-05-04 00:33 44.94983 -91.36515 2993 ft 169 kts 225°
2026-05-04 00:34 44.94182 -91.37645 2784 ft 157 kts 225°
2026-05-04 00:34 44.93434 -91.38701 2572 ft 147 kts 225°
2026-05-04 00:34 44.92727 -91.39698 2384 ft 143 kts 225°
2026-05-04 00:34 44.92033 -91.40677 2197 ft 141 kts 225°
2026-05-04 00:35 44.91333 -91.41664 2007 ft 141 kts 225°
2026-05-04 00:35 44.90650 -91.42626 1823 ft 140 kts 225°
2026-05-04 00:35 44.89956 -91.43604 1636 ft 140 kts 225°
2026-05-04 00:35 44.89273 -91.44566 1451 ft 139 kts 225°
2026-05-04 00:36 44.88583 -91.45536 1268 ft 139 kts 225°
2026-05-04 00:36 44.87921 -91.46467 1088 ft 139 kts 225°
2026-05-04 00:36 44.87244 -91.47422 928 ft 137 kts 225°
2026-05-04 00:36 44.86655 -91.48257 905 ft 93 kts 225°
2026-05-04 00:37 44.86408 -91.48605 901 ft 24 kts 224°
2026-05-04 00:37 44.86342 -91.48608 900 ft 8 kts 157°
2026-05-04 00:37 44.86299 -91.48565 900 ft 7 kts 144°
2026-05-04 00:37 44.86278 -91.48544 900 ft 0 kts 141°
2026-05-04 00:38 44.86259 -91.48514 900 ft 7 kts 132°
2026-05-04 00:38 44.86226 -91.48469 899 ft 6 kts 137°
2026-05-04 00:38 44.86213 -91.48424 899 ft 4 kts 80°
2026-05-04 00:39 44.86214 -91.48422 899 ft 0 kts 78°
2026-05-04 00:40 44.86206 -91.48383 899 ft 5 kts 128°
2026-05-04 00:40 44.86203 -91.48377 899 ft 5 kts 129°
2026-05-04 00:40 44.86190 -91.48336 899 ft 3 kts 63°
2026-05-04 00:40 44.86197 -91.48324 899 ft 0 kts 53°